owner,sensor,date,latitude,longitude,vertical_datum,sea_water_practical_salinity,qcFlag 
SCCF RECON,ioos:station:SCCF:11:1,2017-07-01T00:00:00Z,26.4679,-82.0631,1.921,29.05,1111122 
SCCF RECON,ioos:station:SCCF:11:1,2017-07-01T01:00:00Z,26.4679,-82.0631,1.94,28.98,1111122 
SCCF RECON,ioos:station:SCCF:11:1,2017-07-01T02:00:00Z,26.4679,-82.0631,1.95,28.53,1111122 
SCCF RECON,ioos:station:SCCF:11:1,2017-07-01T03:00:00Z,26.4679,-82.0631,1.938,28.62,1111122 
SCCF RECON,ioos:station:SCCF:11:1,2017-07-01T04:00:00Z,26.4679,-82.0631,1.9,28.76,1111122 
SCCF RECON,ioos:station:SCCF:11:1,2017-07-01T05:00:00Z,26.4679,-82.0631,1.849,28.86,1111122 
SCCF RECON,ioos:station:SCCF:11:1,2017-07-01T06:00:00Z,26.4679,-82.0631,1.8,28.99,1111122 
SCCF RECON,ioos:station:SCCF:11:1,2017-07-01T07:00:00Z,26.4679,-82.0631,1.76,29.01,1111122 
SCCF RECON,ioos:station:SCCF:11:1,2017-07-01T08:00:00Z,26.4679,-82.0631,1.74,28.33,1111122 
SCCF RECON,ioos:station:SCCF:11:1,2017-07-01T09:00:00Z,26.4679,-82.0631,1.747,27.05,1111122 
SCCF RECON,ioos:station:SCCF:11:1,2017-07-01T10:00:00Z,26.4679,-82.0631,1.79,27.33,1111122 
SCCF RECON,ioos:station:SCCF:11:1,2017-07-01T11:00:00Z,26.4679,-82.0631,1.85,27.62,1111122 
SCCF RECON,ioos:station:SCCF:11:1,2017-07-01T12:00:00Z,26.4679,-82.0631,1.926,28.56,1111122 
SCCF RECON,ioos:station:SCCF:11:1,2017-07-01T13:00:00Z,26.4679,-82.0631,1.98,29.24,1111122 
SCCF RECON,ioos:station:SCCF:11:1,2017-07-01T14:00:00Z,26.4679,-82.0631,2.0,27.93,1111122 
SCCF RECON,ioos:station:SCCF:11:1,2017-07-01T15:00:00Z,26.4679,-82.0631,2.01,27.75,1111122 
SCCF RECON,ioos:station:SCCF:11:1,2017-07-01T16:00:00Z,26.4679,-82.0631,2.0,28.02,1111122 
SCCF RECON,ioos:station:SCCF:11:1,2017-07-01T17:00:00Z,26.4679,-82.0631,1.97,28.21,1111122 
SCCF RECON,ioos:station:SCCF:11:1,2017-07-01T18:00:00Z,26.4679,-82.0631,1.951,28.51,1111122 
SCCF RECON,ioos:station:SCCF:11:1,2017-07-01T19:00:00Z,26.4679,-82.0631,1.929,28.63,1111122 
SCCF RECON,ioos:station:SCCF:11:1,2017-07-01T20:00:00Z,26.4679,-82.0631,1.893,28.26,1111122 
SCCF RECON,ioos:station:SCCF:11:1,2017-07-01T21:00:00Z,26.4679,-82.0631,1.86,28.58,1111122 
SCCF RECON,ioos:station:SCCF:11:1,2017-07-01T22:00:00Z,26.4679,-82.0631,1.859,29.13,1111122 
SCCF RECON,ioos:station:SCCF:11:1,2017-07-01T23:00:00Z,26.4679,-82.0631,1.86,28.78,1111122 
SCCF RECON,ioos:station:SCCF:11:1,2017-07-02T00:00:00Z,26.4679,-82.0631,1.86,29.06,1111122 
SCCF RECON,ioos:station:SCCF:11:1,2017-07-02T01:00:00Z,26.4679,-82.0631,1.88,29.17,1111122 
SCCF RECON,ioos:station:SCCF:11:1,2017-07-02T02:00:00Z,26.4679,-82.0631,1.885,29.06,1111122 
SCCF RECON,ioos:station:SCCF:11:1,2017-07-02T03:00:00Z,26.4679,-82.0631,1.88,28.74,1111122 
SCCF RECON,ioos:station:SCCF:11:1,2017-07-02T04:00:00Z,26.4679,-82.0631,1.87,28.89,1111122 
SCCF RECON,ioos:station:SCCF:11:1,2017-07-02T05:00:00Z,26.4679,-82.0631,1.85,28.84,1111122 
SCCF RECON,ioos:station:SCCF:11:1,2017-07-02T06:00:00Z,26.4679,-82.0631,1.82,28.88,1111122 
SCCF RECON,ioos:station:SCCF:11:1,2017-07-02T07:00:00Z,26.4679,-82.0631,1.79,28.94,1111122 
SCCF RECON,ioos:station:SCCF:11:1,2017-07-02T08:00:00Z,26.4679,-82.0631,1.77,27.43,1111122 
SCCF RECON,ioos:station:SCCF:11:1,2017-07-02T09:00:00Z,26.4679,-82.0631,1.75,25.6,1111122 
SCCF RECON,ioos:station:SCCF:11:1,2017-07-02T10:00:00Z,26.4679,-82.0631,1.78,25.76,1111122 
SCCF RECON,ioos:station:SCCF:11:1,2017-07-02T11:00:00Z,26.4679,-82.0631,1.85,27.92,1111122 
SCCF RECON,ioos:station:SCCF:11:1,2017-07-02T12:00:00Z,26.4679,-82.0631,1.911,26.77,1111122 
SCCF RECON,ioos:station:SCCF:11:1,2017-07-02T13:00:00Z,26.4679,-82.0631,1.97,27.74,1111122 
SCCF RECON,ioos:station:SCCF:11:1,2017-07-02T14:00:00Z,26.4679,-82.0631,2.02,28.17,1111122 
SCCF RECON,ioos:station:SCCF:11:1,2017-07-02T15:00:00Z,26.4679,-82.0631,2.02,27.36,1111122 
SCCF RECON,ioos:station:SCCF:11:1,2017-07-02T16:00:00Z,26.4679,-82.0631,2.02,27.2,1111122 
SCCF RECON,ioos:station:SCCF:11:1,2017-07-02T17:00:00Z,26.4679,-82.0631,2.0,27.44,1111122 
SCCF RECON,ioos:station:SCCF:11:1,2017-07-02T18:00:00Z,26.4679,-82.0631,1.98,27.9,1111122 
SCCF RECON,ioos:station:SCCF:11:1,2017-07-02T19:00:00Z,26.4679,-82.0631,1.94,28.0,1111122 
SCCF RECON,ioos:station:SCCF:11:1,2017-07-02T20:00:00Z,26.4679,-82.0631,1.87,28.16,1111122 
SCCF RECON,ioos:station:SCCF:11:1,2017-07-02T21:00:00Z,26.4679,-82.0631,1.81,27.97,1111122 
SCCF RECON,ioos:station:SCCF:11:1,2017-07-02T22:00:00Z,26.4679,-82.0631,1.77,27.93,1111122 
SCCF RECON,ioos:station:SCCF:11:1,2017-07-02T23:00:00Z,26.4679,-82.0631,1.76,27.93,1111122 
SCCF RECON,ioos:station:SCCF:11:1,2017-07-03T00:00:00Z,26.4679,-82.0631,1.79,28.27,1111122 
SCCF RECON,ioos:station:SCCF:11:1,2017-07-03T01:00:00Z,26.4679,-82.0631,1.81,27.48,1111122 
SCCF RECON,ioos:station:SCCF:11:1,2017-07-03T02:00:00Z,26.4679,-82.0631,1.84,27.21,1111122 
SCCF RECON,ioos:station:SCCF:11:1,2017-07-03T03:00:00Z,26.4679,-82.0631,1.86,27.12,1111122 
SCCF RECON,ioos:station:SCCF:11:1,2017-07-03T04:00:00Z,26.4679,-82.0631,1.868,27.16,1111122 
SCCF RECON,ioos:station:SCCF:11:1,2017-07-03T05:00:00Z,26.4679,-82.0631,1.86,27.82,1111122 
SCCF RECON,ioos:station:SCCF:11:1,2017-07-03T06:00:00Z,26.4679,-82.0631,1.86,28.01,1111122 
SCCF RECON,ioos:station:SCCF:11:1,2017-07-03T07:00:00Z,26.4679,-82.0631,1.834,28.3,1111122 
SCCF RECON,ioos:station:SCCF:11:1,2017-07-03T08:00:00Z,26.4679,-82.0631,1.81,28.36,1111122 
SCCF RECON,ioos:station:SCCF:11:1,2017-07-03T09:00:00Z,26.4679,-82.0631,1.79,27.41,1111122 
SCCF RECON,ioos:station:SCCF:11:1,2017-07-03T10:00:00Z,26.4679,-82.0631,1.77,26.43,1111122 
SCCF RECON,ioos:station:SCCF:11:1,2017-07-03T11:00:00Z,26.4679,-82.0631,1.791,26.57,1111122 
SCCF RECON,ioos:station:SCCF:11:1,2017-07-03T12:00:00Z,26.4679,-82.0631,1.87,27.29,1111122 
SCCF RECON,ioos:station:SCCF:11:1,2017-07-03T13:00:00Z,26.4679,-82.0631,1.94,28.04,1111122 
SCCF RECON,ioos:station:SCCF:11:1,2017-07-03T14:00:00Z,26.4679,-82.0631,2.0,28.26,1111122 
SCCF RECON,ioos:station:SCCF:11:1,2017-07-03T15:00:00Z,26.4679,-82.0631,2.04,28.4,1111122 
SCCF RECON,ioos:station:SCCF:11:1,2017-07-03T16:00:00Z,26.4679,-82.0631,2.06,27.23,1111122 
SCCF RECON,ioos:station:SCCF:11:1,2017-07-03T17:00:00Z,26.4679,-82.0631,2.05,27.59,1111122 
SCCF RECON,ioos:station:SCCF:11:1,2017-07-03T18:00:00Z,26.4679,-82.0631,2.02,27.87,1111122 
SCCF RECON,ioos:station:SCCF:11:1,2017-07-03T19:00:00Z,26.4679,-82.0631,1.97,28.03,1111122 
SCCF RECON,ioos:station:SCCF:11:1,2017-07-03T20:00:00Z,26.4679,-82.0631,1.9,28.04,1111122 
SCCF RECON,ioos:station:SCCF:11:1,2017-07-03T21:00:00Z,26.4679,-82.0631,1.82,28.0,1111122 
SCCF RECON,ioos:station:SCCF:11:1,2017-07-03T22:00:00Z,26.4679,-82.0631,1.75,27.79,1111122 
SCCF RECON,ioos:station:SCCF:11:1,2017-07-03T23:00:00Z,26.4679,-82.0631,1.696,27.41,1111122 
SCCF RECON,ioos:station:SCCF:11:1,2017-07-04T00:00:00Z,26.4679,-82.0631,1.69,28.34,1111122 
SCCF RECON,ioos:station:SCCF:11:1,2017-07-04T01:00:00Z,26.4679,-82.0631,1.73,27.74,1111122 
SCCF RECON,ioos:station:SCCF:11:1,2017-07-04T02:00:00Z,26.4679,-82.0631,1.75,27.19,1111122 
SCCF RECON,ioos:station:SCCF:11:1,2017-07-04T03:00:00Z,26.4679,-82.0631,1.79,26.77,1111122 
SCCF RECON,ioos:station:SCCF:11:1,2017-07-04T04:00:00Z,26.4679,-82.0631,1.81,27.03,1111122 
SCCF RECON,ioos:station:SCCF:11:1,2017-07-04T05:00:00Z,26.4679,-82.0631,1.85,27.31,1111122 
SCCF RECON,ioos:station:SCCF:11:1,2017-07-04T06:00:00Z,26.4679,-82.0631,1.87,27.43,1111122 
SCCF RECON,ioos:station:SCCF:11:1,2017-07-04T07:00:00Z,26.4679,-82.0631,1.87,27.72,1111122 
SCCF RECON,ioos:station:SCCF:11:1,2017-07-04T08:00:00Z,26.4679,-82.0631,1.83,27.87,1111122 
SCCF RECON,ioos:station:SCCF:11:1,2017-07-04T09:00:00Z,26.4679,-82.0631,1.81,27.94,1111122 
SCCF RECON,ioos:station:SCCF:11:1,2017-07-04T10:00:00Z,26.4679,-82.0631,1.81,27.66,1111122 
SCCF RECON,ioos:station:SCCF:11:1,2017-07-04T11:00:00Z,26.4679,-82.0631,1.8,26.56,1111122 
SCCF RECON,ioos:station:SCCF:11:1,2017-07-04T12:00:00Z,26.4679,-82.0631,1.849,26.23,1111122 
SCCF RECON,ioos:station:SCCF:11:1,2017-07-04T13:00:00Z,26.4679,-82.0631,1.9,27.43,1111122 
SCCF RECON,ioos:station:SCCF:11:1,2017-07-04T14:00:00Z,26.4679,-82.0631,1.98,28.13,1111122 
SCCF RECON,ioos:station:SCCF:11:1,2017-07-04T15:00:00Z,26.4679,-82.0631,2.03,28.13,1111122 
SCCF RECON,ioos:station:SCCF:11:1,2017-07-04T16:00:00Z,26.4679,-82.0631,2.075,28.69,1111122 
SCCF RECON,ioos:station:SCCF:11:1,2017-07-04T17:00:00Z,26.4679,-82.0631,2.1,27.13,1111122 
SCCF RECON,ioos:station:SCCF:11:1,2017-07-04T18:00:00Z,26.4679,-82.0631,2.08,27.7,1111122 
SCCF RECON,ioos:station:SCCF:11:1,2017-07-04T19:00:00Z,26.4679,-82.0631,2.04,28.01,1111122 
SCCF RECON,ioos:station:SCCF:11:1,2017-07-04T20:00:00Z,26.4679,-82.0631,1.95,28.27,1111122 
SCCF RECON,ioos:station:SCCF:11:1,2017-07-04T21:00:00Z,26.4679,-82.0631,1.853,28.17,1111122 
SCCF RECON,ioos:station:SCCF:11:1,2017-07-04T22:00:00Z,26.4679,-82.0631,1.759,28.8,1111122 
SCCF RECON,ioos:station:SCCF:11:1,2017-07-04T23:00:00Z,26.4679,-82.0631,1.68,28.63,1111122 
SCCF RECON,ioos:station:SCCF:11:1,2017-07-05T00:00:00Z,26.4679,-82.0631,1.64,28.05,1111122 
SCCF RECON,ioos:station:SCCF:11:1,2017-07-05T01:00:00Z,26.4679,-82.0631,1.63,27.05,1111122 
SCCF RECON,ioos:station:SCCF:11:1,2017-07-05T02:00:00Z,26.4679,-82.0631,1.66,26.21,1111122 
SCCF RECON,ioos:station:SCCF:11:1,2017-07-05T03:00:00Z,26.4679,-82.0631,1.722,26.45,1111122 
SCCF RECON,ioos:station:SCCF:11:1,2017-07-05T04:00:00Z,26.4679,-82.0631,1.78,26.19,1111122 
SCCF RECON,ioos:station:SCCF:11:1,2017-07-05T05:00:00Z,26.4679,-82.0631,1.84,26.58,1111122 
SCCF RECON,ioos:station:SCCF:11:1,2017-07-05T06:00:00Z,26.4679,-82.0631,1.86,26.34,1111122 
SCCF RECON,ioos:station:SCCF:11:1,2017-07-05T07:00:00Z,26.4679,-82.0631,1.86,26.54,1111122 
SCCF RECON,ioos:station:SCCF:11:1,2017-07-05T08:00:00Z,26.4679,-82.0631,1.85,27.08,1111122 
SCCF RECON,ioos:station:SCCF:11:1,2017-07-05T09:00:00Z,26.4679,-82.0631,1.83,27.04,1111122 
SCCF RECON,ioos:station:SCCF:11:1,2017-07-05T10:00:00Z,26.4679,-82.0631,1.83,27.21,1111122 
SCCF RECON,ioos:station:SCCF:11:1,2017-07-05T11:00:00Z,26.4679,-82.0631,1.83,27.18,1111122 
SCCF RECON,ioos:station:SCCF:11:1,2017-07-05T12:00:00Z,26.4679,-82.0631,1.85,27.68,1111122 
SCCF RECON,ioos:station:SCCF:11:1,2017-07-05T13:00:00Z,26.4679,-82.0631,1.9,27.2,1111122 
SCCF RECON,ioos:station:SCCF:11:1,2017-07-05T14:00:00Z,26.4679,-82.0631,1.937,26.55,1111122 
SCCF RECON,ioos:station:SCCF:11:1,2017-07-05T15:00:00Z,26.4679,-82.0631,2.0,27.57,1111122 
SCCF RECON,ioos:station:SCCF:11:1,2017-07-05T16:00:00Z,26.4679,-82.0631,2.07,28.86,1111122 
SCCF RECON,ioos:station:SCCF:11:1,2017-07-05T17:00:00Z,26.4679,-82.0631,2.102,26.96,1111122 
SCCF RECON,ioos:station:SCCF:11:1,2017-07-05T18:00:00Z,26.4679,-82.0631,2.109,27.45,1111122 
SCCF RECON,ioos:station:SCCF:11:1,2017-07-05T19:00:00Z,26.4679,-82.0631,2.067,27.55,1111122 
SCCF RECON,ioos:station:SCCF:11:1,2017-07-05T20:00:00Z,26.4679,-82.0631,1.99,27.69,1111122 
SCCF RECON,ioos:station:SCCF:11:1,2017-07-05T21:00:00Z,26.4679,-82.0631,1.864,28.07,1111122 
SCCF RECON,ioos:station:SCCF:11:1,2017-07-05T22:00:00Z,26.4679,-82.0631,1.75,28.35,1111122 
SCCF RECON,ioos:station:SCCF:11:1,2017-07-05T23:00:00Z,26.4679,-82.0631,1.64,28.32,1111122 
SCCF RECON,ioos:station:SCCF:11:1,2017-07-06T00:00:00Z,26.4679,-82.0631,1.58,27.81,1111122 
SCCF RECON,ioos:station:SCCF:11:1,2017-07-06T01:00:00Z,26.4679,-82.0631,1.59,27.85,1111122 
SCCF RECON,ioos:station:SCCF:11:1,2017-07-06T02:00:00Z,26.4679,-82.0631,1.63,26.81,1111122 
SCCF RECON,ioos:station:SCCF:11:1,2017-07-06T03:00:00Z,26.4679,-82.0631,1.71,24.96,1111122 
SCCF RECON,ioos:station:SCCF:11:1,2017-07-06T04:00:00Z,26.4679,-82.0631,1.8,25.03,1111122 
SCCF RECON,ioos:station:SCCF:11:1,2017-07-06T05:00:00Z,26.4679,-82.0631,1.87,25.08,1111122 
SCCF RECON,ioos:station:SCCF:11:1,2017-07-06T06:00:00Z,26.4679,-82.0631,1.931,25.19,1111122 
SCCF RECON,ioos:station:SCCF:11:1,2017-07-06T07:00:00Z,26.4679,-82.0631,1.94,25.51,1111122 
SCCF RECON,ioos:station:SCCF:11:1,2017-07-06T08:00:00Z,26.4679,-82.0631,1.92,25.86,1111122 
SCCF RECON,ioos:station:SCCF:11:1,2017-07-06T09:00:00Z,26.4679,-82.0631,1.88,26.31,1111122 
SCCF RECON,ioos:station:SCCF:11:1,2017-07-06T10:00:00Z,26.4679,-82.0631,1.839,26.79,1111122 
SCCF RECON,ioos:station:SCCF:11:1,2017-07-06T11:00:00Z,26.4679,-82.0631,1.8,27.06,1111122 
SCCF RECON,ioos:station:SCCF:11:1,2017-07-06T12:00:00Z,26.4679,-82.0631,1.82,27.01,1111122 
SCCF RECON,ioos:station:SCCF:11:1,2017-07-06T13:00:00Z,26.4679,-82.0631,1.89,27.57,1111122 
SCCF RECON,ioos:station:SCCF:11:1,2017-07-06T14:00:00Z,26.4679,-82.0631,1.98,27.36,1111122 
SCCF RECON,ioos:station:SCCF:11:1,2017-07-06T15:00:00Z,26.4679,-82.0631,2.07,27.98,1111122 
SCCF RECON,ioos:station:SCCF:11:1,2017-07-06T16:00:00Z,26.4679,-82.0631,2.14,28.66,1111122 
SCCF RECON,ioos:station:SCCF:11:1,2017-07-06T17:00:00Z,26.4679,-82.0631,2.162,27.48,1111122 
SCCF RECON,ioos:station:SCCF:11:1,2017-07-06T18:00:00Z,26.4679,-82.0631,2.2,26.89,1111122 
SCCF RECON,ioos:station:SCCF:11:1,2017-07-06T19:00:00Z,26.4679,-82.0631,2.12,27.26,1111122 
SCCF RECON,ioos:station:SCCF:11:1,2017-07-06T20:00:00Z,26.4679,-82.0631,2.0,27.66,1111122 
SCCF RECON,ioos:station:SCCF:11:1,2017-07-06T21:00:00Z,26.4679,-82.0631,1.861,27.74,1111122 
SCCF RECON,ioos:station:SCCF:11:1,2017-07-06T22:00:00Z,26.4679,-82.0631,1.74,27.81,1111122 
SCCF RECON,ioos:station:SCCF:11:1,2017-07-06T23:00:00Z,26.4679,-82.0631,1.63,27.87,1111122 
SCCF RECON,ioos:station:SCCF:11:1,2017-07-07T00:00:00Z,26.4679,-82.0631,1.54,27.19,1111122 
SCCF RECON,ioos:station:SCCF:11:1,2017-07-07T01:00:00Z,26.4679,-82.0631,1.517,27.55,1111122 
SCCF RECON,ioos:station:SCCF:11:1,2017-07-07T02:00:00Z,26.4679,-82.0631,1.54,26.8,1111122 
SCCF RECON,ioos:station:SCCF:11:1,2017-07-07T03:00:00Z,26.4679,-82.0631,1.61,25.64,1111122 
SCCF RECON,ioos:station:SCCF:11:1,2017-07-07T04:00:00Z,26.4679,-82.0631,1.71,25.98,1111122 
SCCF RECON,ioos:station:SCCF:11:1,2017-07-07T05:00:00Z,26.4679,-82.0631,1.794,25.72,1111122 
SCCF RECON,ioos:station:SCCF:11:1,2017-07-07T06:00:00Z,26.4679,-82.0631,1.86,25.92,1111122 
SCCF RECON,ioos:station:SCCF:11:1,2017-07-07T07:00:00Z,26.4679,-82.0631,1.9,26.18,1111122 
SCCF RECON,ioos:station:SCCF:11:1,2017-07-07T08:00:00Z,26.4679,-82.0631,1.9,26.17,1111122 
SCCF RECON,ioos:station:SCCF:11:1,2017-07-07T09:00:00Z,26.4679,-82.0631,1.89,26.23,1111122 
SCCF RECON,ioos:station:SCCF:11:1,2017-07-07T10:00:00Z,26.4679,-82.0631,1.88,26.25,1111122 
SCCF RECON,ioos:station:SCCF:11:1,2017-07-07T11:00:00Z,26.4679,-82.0631,1.86,26.53,1111122 
SCCF RECON,ioos:station:SCCF:11:1,2017-07-07T12:00:00Z,26.4679,-82.0631,1.86,27.44,1111122 
SCCF RECON,ioos:station:SCCF:11:1,2017-07-07T13:00:00Z,26.4679,-82.0631,1.88,27.24,1111122 
SCCF RECON,ioos:station:SCCF:11:1,2017-07-07T14:00:00Z,26.4679,-82.0631,1.96,27.42,1111122 
SCCF RECON,ioos:station:SCCF:11:1,2017-07-07T15:00:00Z,26.4679,-82.0631,2.06,28.71,1111122 
SCCF RECON,ioos:station:SCCF:11:1,2017-07-07T16:00:00Z,26.4679,-82.0631,2.145,29.19,1111122 
SCCF RECON,ioos:station:SCCF:11:1,2017-07-07T17:00:00Z,26.4679,-82.0631,2.19,29.78,1111122 
SCCF RECON,ioos:station:SCCF:11:1,2017-07-07T18:00:00Z,26.4679,-82.0631,2.21,27.41,1111122 
SCCF RECON,ioos:station:SCCF:11:1,2017-07-07T19:00:00Z,26.4679,-82.0631,2.19,27.01,1111122 
SCCF RECON,ioos:station:SCCF:11:1,2017-07-07T20:00:00Z,26.4679,-82.0631,2.1,27.23,1111122 
SCCF RECON,ioos:station:SCCF:11:1,2017-07-07T21:00:00Z,26.4679,-82.0631,2.0,27.32,1111122 
SCCF RECON,ioos:station:SCCF:11:1,2017-07-07T22:00:00Z,26.4679,-82.0631,1.88,27.4,1111122 
SCCF RECON,ioos:station:SCCF:11:1,2017-07-07T23:00:00Z,26.4679,-82.0631,1.74,27.48,1111122 
SCCF RECON,ioos:station:SCCF:11:1,2017-07-08T00:00:00Z,26.4679,-82.0631,1.63,27.5,1111122 
SCCF RECON,ioos:station:SCCF:11:1,2017-07-08T01:00:00Z,26.4679,-82.0631,1.56,26.79,1111122 
SCCF RECON,ioos:station:SCCF:11:1,2017-07-08T02:00:00Z,26.4679,-82.0631,1.55,27.97,1111122 
SCCF RECON,ioos:station:SCCF:11:1,2017-07-08T03:00:00Z,26.4679,-82.0631,1.606,27.02,1111122 
SCCF RECON,ioos:station:SCCF:11:1,2017-07-08T04:00:00Z,26.4679,-82.0631,1.69,26.54,1111122 
SCCF RECON,ioos:station:SCCF:11:1,2017-07-08T05:00:00Z,26.4679,-82.0631,1.78,26.65,1111122 
SCCF RECON,ioos:station:SCCF:11:1,2017-07-08T06:00:00Z,26.4679,-82.0631,1.87,26.48,1111122 
SCCF RECON,ioos:station:SCCF:11:1,2017-07-08T07:00:00Z,26.4679,-82.0631,1.94,27.29,1111122 
SCCF RECON,ioos:station:SCCF:11:1,2017-07-08T08:00:00Z,26.4679,-82.0631,1.943,26.59,1111122 
SCCF RECON,ioos:station:SCCF:11:1,2017-07-08T09:00:00Z,26.4679,-82.0631,1.92,26.63,1111122 
SCCF RECON,ioos:station:SCCF:11:1,2017-07-08T10:00:00Z,26.4679,-82.0631,1.893,26.8,1111122 
SCCF RECON,ioos:station:SCCF:11:1,2017-07-08T11:00:00Z,26.4679,-82.0631,1.869,26.78,1111122 
SCCF RECON,ioos:station:SCCF:11:1,2017-07-08T12:00:00Z,26.4679,-82.0631,1.86,26.76,1111122 
SCCF RECON,ioos:station:SCCF:11:1,2017-07-08T13:00:00Z,26.4679,-82.0631,1.878,27.47,1111122 
SCCF RECON,ioos:station:SCCF:11:1,2017-07-08T14:00:00Z,26.4679,-82.0631,1.95,27.91,1111122 
SCCF RECON,ioos:station:SCCF:11:1,2017-07-08T15:00:00Z,26.4679,-82.0631,2.02,28.54,1111122 
SCCF RECON,ioos:station:SCCF:11:1,2017-07-08T16:00:00Z,26.4679,-82.0631,2.116,28.52,1111122 
SCCF RECON,ioos:station:SCCF:11:1,2017-07-08T17:00:00Z,26.4679,-82.0631,2.17,29.46,1111122 
SCCF RECON,ioos:station:SCCF:11:1,2017-07-08T18:00:00Z,26.4679,-82.0631,2.19,29.87,1111122 
SCCF RECON,ioos:station:SCCF:11:1,2017-07-08T19:00:00Z,26.4679,-82.0631,2.23,27.33,1111122 
SCCF RECON,ioos:station:SCCF:11:1,2017-07-08T20:00:00Z,26.4679,-82.0631,2.15,27.44,1111122 
SCCF RECON,ioos:station:SCCF:11:1,2017-07-08T21:00:00Z,26.4679,-82.0631,2.04,27.31,1111122 
SCCF RECON,ioos:station:SCCF:11:1,2017-07-08T22:00:00Z,26.4679,-82.0631,1.909,27.35,1111122 
SCCF RECON,ioos:station:SCCF:11:1,2017-07-08T23:00:00Z,26.4679,-82.0631,1.77,27.51,1111122 
SCCF RECON,ioos:station:SCCF:11:1,2017-07-09T00:00:00Z,26.4679,-82.0631,1.64,27.63,1111122 
SCCF RECON,ioos:station:SCCF:11:1,2017-07-09T01:00:00Z,26.4679,-82.0631,1.545,27.45,1111122 
SCCF RECON,ioos:station:SCCF:11:1,2017-07-09T02:00:00Z,26.4679,-82.0631,1.51,27.95,1111122 
SCCF RECON,ioos:station:SCCF:11:1,2017-07-09T03:00:00Z,26.4679,-82.0631,1.531,27.22,1111122 
SCCF RECON,ioos:station:SCCF:11:1,2017-07-09T04:00:00Z,26.4679,-82.0631,1.58,26.21,1111122 
SCCF RECON,ioos:station:SCCF:11:1,2017-07-09T05:00:00Z,26.4679,-82.0631,1.685,26.89,1111122 
SCCF RECON,ioos:station:SCCF:11:1,2017-07-09T06:00:00Z,26.4679,-82.0631,1.77,26.53,1111122 
SCCF RECON,ioos:station:SCCF:11:1,2017-07-09T07:00:00Z,26.4679,-82.0631,1.859,26.82,1111122 
SCCF RECON,ioos:station:SCCF:11:1,2017-07-09T08:00:00Z,26.4679,-82.0631,1.9,27.33,1111122 
SCCF RECON,ioos:station:SCCF:11:1,2017-07-09T09:00:00Z,26.4679,-82.0631,1.91,26.97,1111122 
SCCF RECON,ioos:station:SCCF:11:1,2017-07-09T10:00:00Z,26.4679,-82.0631,1.9,26.8,1111122 
SCCF RECON,ioos:station:SCCF:11:1,2017-07-09T11:00:00Z,26.4679,-82.0631,1.871,26.92,1111122 
SCCF RECON,ioos:station:SCCF:11:1,2017-07-09T12:00:00Z,26.4679,-82.0631,1.853,27.04,1111122 
SCCF RECON,ioos:station:SCCF:11:1,2017-07-09T13:00:00Z,26.4679,-82.0631,1.855,27.23,1111122 
SCCF RECON,ioos:station:SCCF:11:1,2017-07-09T14:00:00Z,26.4679,-82.0631,1.88,28.74,1111122 
SCCF RECON,ioos:station:SCCF:11:1,2017-07-09T15:00:00Z,26.4679,-82.0631,1.95,29.06,1111122 
SCCF RECON,ioos:station:SCCF:11:1,2017-07-09T16:00:00Z,26.4679,-82.0631,2.036,29.79,1111122 
SCCF RECON,ioos:station:SCCF:11:1,2017-07-09T17:00:00Z,26.4679,-82.0631,2.147,30.04,1111122 
SCCF RECON,ioos:station:SCCF:11:1,2017-07-09T18:00:00Z,26.4679,-82.0631,2.2,30.49,1111122 
SCCF RECON,ioos:station:SCCF:11:1,2017-07-09T19:00:00Z,26.4679,-82.0631,2.209,27.99,1111122 
SCCF RECON,ioos:station:SCCF:11:1,2017-07-09T20:00:00Z,26.4679,-82.0631,2.16,27.88,1111122 
SCCF RECON,ioos:station:SCCF:11:1,2017-07-09T21:00:00Z,26.4679,-82.0631,2.08,27.8,1111122 
SCCF RECON,ioos:station:SCCF:11:1,2017-07-09T22:00:00Z,26.4679,-82.0631,1.97,27.71,1111122 
SCCF RECON,ioos:station:SCCF:11:1,2017-07-09T23:00:00Z,26.4679,-82.0631,1.85,27.73,1111122 
SCCF RECON,ioos:station:SCCF:11:1,2017-07-10T00:00:00Z,26.4679,-82.0631,1.73,27.76,1111122 
SCCF RECON,ioos:station:SCCF:11:1,2017-07-10T01:00:00Z,26.4679,-82.0631,1.615,27.78,1111122 
SCCF RECON,ioos:station:SCCF:11:1,2017-07-10T02:00:00Z,26.4679,-82.0631,1.539,27.75,1111122 
SCCF RECON,ioos:station:SCCF:11:1,2017-07-10T03:00:00Z,26.4679,-82.0631,1.524,28.27,1111122 
SCCF RECON,ioos:station:SCCF:11:1,2017-07-10T04:00:00Z,26.4679,-82.0631,1.574,27.54,1111122 
SCCF RECON,ioos:station:SCCF:11:1,2017-07-10T05:00:00Z,26.4679,-82.0631,1.64,27.53,1111122 
SCCF RECON,ioos:station:SCCF:11:1,2017-07-10T06:00:00Z,26.4679,-82.0631,1.73,27.21,1111122 
SCCF RECON,ioos:station:SCCF:11:1,2017-07-10T07:00:00Z,26.4679,-82.0631,1.81,27.06,1111122 
SCCF RECON,ioos:station:SCCF:11:1,2017-07-10T08:00:00Z,26.4679,-82.0631,1.88,27.48,1111122 
SCCF RECON,ioos:station:SCCF:11:1,2017-07-10T09:00:00Z,26.4679,-82.0631,1.91,27.13,1111122 
SCCF RECON,ioos:station:SCCF:11:1,2017-07-10T10:00:00Z,26.4679,-82.0631,1.91,27.25,1111122 
SCCF RECON,ioos:station:SCCF:11:1,2017-07-10T11:00:00Z,26.4679,-82.0631,1.895,27.43,1111122 
SCCF RECON,ioos:station:SCCF:11:1,2017-07-10T12:00:00Z,26.4679,-82.0631,1.87,27.53,1111122 
SCCF RECON,ioos:station:SCCF:11:1,2017-07-10T13:00:00Z,26.4679,-82.0631,1.84,27.55,1111122 
SCCF RECON,ioos:station:SCCF:11:1,2017-07-10T14:00:00Z,26.4679,-82.0631,1.84,28.02,1111122 
SCCF RECON,ioos:station:SCCF:11:1,2017-07-10T15:00:00Z,26.4679,-82.0631,1.88,28.38,1111122 
SCCF RECON,ioos:station:SCCF:11:1,2017-07-10T16:00:00Z,26.4679,-82.0631,1.966,28.93,1111122 
SCCF RECON,ioos:station:SCCF:11:1,2017-07-10T17:00:00Z,26.4679,-82.0631,2.07,29.94,1111122 
SCCF RECON,ioos:station:SCCF:11:1,2017-07-10T18:00:00Z,26.4679,-82.0631,2.15,29.55,1111122 
SCCF RECON,ioos:station:SCCF:11:1,2017-07-10T19:00:00Z,26.4679,-82.0631,2.2,30.85,1111122 
SCCF RECON,ioos:station:SCCF:11:1,2017-07-10T20:00:00Z,26.4679,-82.0631,2.19,28.48,1111122 
SCCF RECON,ioos:station:SCCF:11:1,2017-07-10T21:00:00Z,26.4679,-82.0631,2.14,28.17,1111122 
SCCF RECON,ioos:station:SCCF:11:1,2017-07-10T22:00:00Z,26.4679,-82.0631,2.06,28.1,1111122 
SCCF RECON,ioos:station:SCCF:11:1,2017-07-10T23:00:00Z,26.4679,-82.0631,1.95,27.99,1111122 
SCCF RECON,ioos:station:SCCF:11:1,2017-07-11T00:00:00Z,26.4679,-82.0631,1.82,28.02,1111122 
SCCF RECON,ioos:station:SCCF:11:1,2017-07-11T01:00:00Z,26.4679,-82.0631,1.71,28.0,1111122 
SCCF RECON,ioos:station:SCCF:11:1,2017-07-11T02:00:00Z,26.4679,-82.0631,1.62,27.97,1111122 
SCCF RECON,ioos:station:SCCF:11:1,2017-07-11T03:00:00Z,26.4679,-82.0631,1.57,28.14,1111122 
SCCF RECON,ioos:station:SCCF:11:1,2017-07-11T04:00:00Z,26.4679,-82.0631,1.57,28.1,1111122 
SCCF RECON,ioos:station:SCCF:11:1,2017-07-11T05:00:00Z,26.4679,-82.0631,1.61,26.67,1111122 
SCCF RECON,ioos:station:SCCF:11:1,2017-07-11T06:00:00Z,26.4679,-82.0631,1.7,27.56,1111122 
SCCF RECON,ioos:station:SCCF:11:1,2017-07-11T07:00:00Z,26.4679,-82.0631,1.778,27.31,1111122 
SCCF RECON,ioos:station:SCCF:11:1,2017-07-11T08:00:00Z,26.4679,-82.0631,1.842,27.13,1111122 
SCCF RECON,ioos:station:SCCF:11:1,2017-07-11T09:00:00Z,26.4679,-82.0631,1.884,27.3,1111122 
SCCF RECON,ioos:station:SCCF:11:1,2017-07-11T10:00:00Z,26.4679,-82.0631,1.91,27.39,1111122 
SCCF RECON,ioos:station:SCCF:11:1,2017-07-11T11:00:00Z,26.4679,-82.0631,1.897,27.5,1111122 
SCCF RECON,ioos:station:SCCF:11:1,2017-07-11T12:00:00Z,26.4679,-82.0631,1.86,27.55,1111122 
SCCF RECON,ioos:station:SCCF:11:1,2017-07-11T13:00:00Z,26.4679,-82.0631,1.82,27.61,1111122 
SCCF RECON,ioos:station:SCCF:11:1,2017-07-11T14:00:00Z,26.4679,-82.0631,1.81,27.65,1111122 
SCCF RECON,ioos:station:SCCF:11:1,2017-07-11T15:00:00Z,26.4679,-82.0631,1.86,28.23,1111122 
SCCF RECON,ioos:station:SCCF:11:1,2017-07-11T16:00:00Z,26.4679,-82.0631,1.94,28.17,1111122 
SCCF RECON,ioos:station:SCCF:11:1,2017-07-11T17:00:00Z,26.4679,-82.0631,2.02,28.43,1111122 
SCCF RECON,ioos:station:SCCF:11:1,2017-07-11T18:00:00Z,26.4679,-82.0631,2.11,29.0,1111122 